Flag for Denmark Weather past 2 weeks in Aarhus, Denmark

Now
64 °F

Passing clouds.


Feels Like: 64 °F
Forecast: 56 / 74 °F
Wind: 5 mph from Northwest

Location: Tirstrup

Current Time: Jul 29, 2014 at 8:27:42 AM

Latest Report: Jul 29, 2014 at 7:50 AM


Visibility: N/A

Pressure: 29.95 "Hg

Humidity: 78%

Dew point: 57 °F

Location of AarhusLocation

Historic Weather in Aarhus — Graph

°F

Aarhus temperature yesterday

Maximum temperature yesterday: 81 °F (at 4:50 PM)
Minimum temperature yesterday: 61 °F (at 4:20 AM)
Average temperature yesterday: 72 °F

Past Weeks' High & Low Weather Summary

 TemperatureHumidityPressure
High84 °F (Jul 25, 4:50 PM)94% (Jul 14, 11:20 AM)30.27 "Hg (Jul 14, 11:20 AM)
Low48 °F (Jul 17, 5:20 AM)26% (Jul 23, 1:20 PM)29.53 "Hg (Jul 14, 7:20 AM)
Average69 °F64%30.06 "Hg
* Reported Jul 14 7:20 AM — Jul 29 7:20 AM, Aarhus, Weather by CustomWeather, © 2014

Note: Actual official high and low records may vary slightly from our data, if they occured in-between our weather recording intervals... More about our weather records

Advertising

Aarhus weather history for previous 24 hours

 ConditionsComfort  
Time TempWeatherWind HumidityBarometerVisibility
7:20 AM
Jul 29
63 °FMild.5 mph83%29.95 "HgN/A
6:50 AM61 °FCool.2 mph83%29.95 "HgN/A
6:20 AM59 °FCool.2 mph88%29.95 "HgN/A
5:50 AM57 °FCool.3 mph88%29.95 "HgN/A
5:20 AM57 °FCool.8 mph88%29.92 "HgN/A
4:50 AM59 °FCool.3 mph82%29.95 "HgN/A
4:20 AM61 °FCool.3 mph83%29.95 "HgN/A
3:50 AM61 °FCool.3 mph83%29.95 "HgN/A
3:20 AM61 °FCool.3 mph83%29.95 "HgN/A
2:50 AM61 °FCool.5 mph83%29.95 "HgN/A
2:20 AM63 °FMild.2 mph77%29.95 "HgN/A
1:50 AM63 °FMild.3 mph83%29.95 "HgN/A
1:20 AM64 °FMild.2 mph78%29.95 "HgN/A
12:50 AM64 °FMild.2 mph78%29.95 "HgN/A
12:20 AM66 °FMild.2 mph73%29.98 "HgN/A
10:50 PM
Jul 28
68 °FMild.3 mph73%29.95 "HgN/A
10:20 PM70 °FMild.3 mph64%29.95 "HgN/A
9:50 PM72 °FMild.2 mph61%29.95 "HgN/A
9:20 PM75 °FMild.3 mph54%29.95 "HgN/A
8:50 PM75 °FMild.5 mph54%29.95 "HgN/A
8:20 PM77 °FWarm.5 mph47%29.95 "HgN/A
7:50 PM79 °FWarm.7 mph45%29.95 "HgN/A
7:20 PM79 °FWarm.8 mph45%29.92 "HgN/A
6:50 PM79 °FWarm.7 mph42%29.92 "HgN/A
6:20 PM79 °FWarm.6 mph42%29.95 "HgN/A
5:50 PM79 °FPleasantly warm.7 mph39%29.95 "HgN/A
5:20 PM81 °FPassing clouds.7 mph37%29.95 "HgN/A
4:50 PM81 °FPassing clouds.7 mph37%29.95 "HgN/A
4:20 PM79 °FPassing clouds.7 mph42%29.95 "HgN/A
3:50 PM79 °FScattered clouds.5 mph42%29.95 "HgN/A
3:20 PM79 °FPartly sunny.5 mph45%29.95 "HgN/A
2:50 PM77 °FPartly sunny.2 mph54%29.95 "HgN/A
2:20 PM79 °FBroken clouds.3 mph51%29.98 "HgN/A
1:50 PM77 °FBroken clouds.3 mph51%29.98 "HgN/A
1:20 PM77 °FPartly sunny.6 mph51%29.98 "HgN/A
12:50 PM77 °FScattered clouds.3 mph51%29.98 "HgN/A
12:20 PM77 °FPassing clouds.6 mph51%29.98 "HgN/A
11:50 AM77 °FScattered clouds.7 mph54%29.98 "HgN/A
11:20 AM77 °FPartly sunny.7 mph54%29.98 "HgN/A
10:50 AM75 °FPassing clouds.6 mph57%29.98 "HgN/A
10:20 AM73 °FPassing clouds.8 mph65%29.98 "HgN/A
9:50 AM73 °FScattered clouds.6 mph69%29.98 "HgN/A
9:20 AM72 °FPassing clouds.5 mph73%29.98 "HgN/A
8:50 AM70 °FPassing clouds.6 mph83%29.98 "HgN/A
8:20 AM68 °FPassing clouds.6 mph83%29.98 "HgN/A
Weather by CustomWeather, © 2014

See weather overviewHow to use our weather pages